Voltar ao catálogo

COSMOS 569

AtivoMilitarLEO
NORAD 6680·PAYLOAD·🇷🇺 Russia

Lançado Jun 8, 1973 de Plesetsk Cosmodrome

Loading…

Próximas Passagens (próximas 24 horas)

TLE

AtualizadoSource: Space-Track

Época: Sep 14, 2026, 14:53 UTC

1  6680U 73037F   26257.62016845 -.00000006  00000-0  58689-4 0  9991
2  6680  74.0222  12.8877 0078673 157.6306 214.4307 12.61179616452340

Acompanhe COSMOS 569 em tempo real com AllMySat

Download on the App Store